• en France
  • Liste des pays
  • À 7 jours
  • Température de l'eau
  • Carte satellitaire
  • Carte météo
  • Widgets météo
  • user-avatar
    Se connecter

    Météo par heure à Lyatovka

    Ce jour, 22 Septembre, Samedi

    Heure Température Précipitation Vent Pression Humidité
    00:00 +19°C° 0 mm 5 m/s 752 mmHg 76%
    01:00 +19°C° 0 mm 5 m/s 751 mmHg 75%
    02:00 +19°C° 0 mm 6 m/s 750 mmHg 73%
    03:00 +19°C° 0 mm 6 m/s 750 mmHg 72%
    04:00 +19°C° 0 mm 6 m/s 749 mmHg 71%
    05:00 +19°C° 0 mm 6 m/s 749 mmHg 70%
    06:00 +19°C° 0 mm 6 m/s 749 mmHg 71%
    07:00 +19°C° 0 mm 6 m/s 749 mmHg 72%
    08:00 +19°C° 0 mm 6 m/s 749 mmHg 73%
    09:00 +16°C° 0.6 mm 5 m/s 749 mmHg 78%
    10:00 +15°C° 0.6 mm 5 m/s 749 mmHg 82%
    11:00 +14°C° 0.6 mm 5 m/s 750 mmHg 87%
    12:00 +13°C° 0.4 mm 5 m/s 750 mmHg 87%
    13:00 +13°C° 0.4 mm 5 m/s 750 mmHg 87%
    14:00 +13°C° 0.4 mm 4 m/s 751 mmHg 86%
    15:00 +13°C° 0.1 mm 4 m/s 751 mmHg 85%
    16:00 +13°C° 0.1 mm 4 m/s 751 mmHg 84%
    17:00 +13°C° 0.1 mm 4 m/s 751 mmHg 83%
    18:00 +12°C° 0.1 mm 4 m/s 751 mmHg 84%
    19:00 +12°C° 0.1 mm 4 m/s 751 mmHg 84%
    20:00 +11°C° 0.1 mm 4 m/s 751 mmHg 84%
    21:00 +11°C° 0 mm 4 m/s 751 mmHg 85%
    22:00 +10°C° 0 mm 4 m/s 751 mmHg 86%
    23:00 +10°C° 0 mm 4 m/s 751 mmHg 86%

    Demain, 23 Septembre, Dimanche

    Heure Température Précipitation Vent Pression Humidité
    00:00 +10°C° 0 mm 4 m/s 751 mmHg 87%
    01:00 +8°C° 0 mm 4 m/s 751 mmHg 88%
    02:00 +8°C° 0 mm 4 m/s 751 mmHg 89%
    03:00 +8°C° 0 mm 4 m/s 750 mmHg 90%
    04:00 +8°C° 0 mm 5 m/s 750 mmHg 91%
    05:00 +8°C° 0 mm 5 m/s 750 mmHg 91%
    06:00 +8°C° 0 mm 5 m/s 750 mmHg 88%
    07:00 +9°C° 0 mm 5 m/s 750 mmHg 85%
    08:00 +9°C° 0 mm 5 m/s 749 mmHg 82%
    09:00 +10°C° 0.1 mm 6 m/s 749 mmHg 77%
    10:00 +11°C° 0.1 mm 6 m/s 749 mmHg 72%
    11:00 +13°C° 0.1 mm 6 m/s 749 mmHg 67%
    12:00 +13°C° 0.2 mm 6 m/s 749 mmHg 67%
    13:00 +13°C° 0.2 mm 6 m/s 749 mmHg 68%
    14:00 +13°C° 0.2 mm 6 m/s 749 mmHg 68%
    15:00 +13°C° 0.2 mm 6 m/s 749 mmHg 72%
    16:00 +12°C° 0.2 mm 5 m/s 749 mmHg 76%
    17:00 +12°C° 0.2 mm 5 m/s 749 mmHg 79%
    18:00 +11°C° 0.1 mm 4 m/s 749 mmHg 83%
    19:00 +10°C° 0.1 mm 4 m/s 749 mmHg 86%
    20:00 +8°C° 0.1 mm 4 m/s 749 mmHg 89%
    21:00 +8°C° 0.1 mm 4 m/s 749 mmHg 89%
    22:00 +8°C° 0.1 mm 4 m/s 749 mmHg 90%
    23:00 +7°C° 0.1 mm 4 m/s 749 mmHg 91%

    Après-demain, 24 Septembre, Lundi

    Heure Température Précipitation Vent Pression Humidité
    00:00 +7°C° 0 mm 4 m/s 749 mmHg 92%
    01:00 +7°C° 0 mm 4 m/s 749 mmHg 94%
    02:00 +7°C° 0 mm 3 m/s 749 mmHg 96%
    03:00 +7°C° 0 mm 3 m/s 749 mmHg 96%
    04:00 +7°C° 0 mm 2 m/s 749 mmHg 96%
    05:00 +7°C° 0 mm 2 m/s 749 mmHg 96%
    06:00 +7°C° 0 mm 2 m/s 749 mmHg 95%
    07:00 +9°C° 0 mm 1 m/s 749 mmHg 93%
    08:00 +9°C° 0 mm 1 m/s 749 mmHg 92%
    09:00 +10°C° 0.1 mm 1 m/s 749 mmHg 88%
    10:00 +10°C° 0.1 mm 2 m/s 749 mmHg 84%
    11:00 +12°C° 0.1 mm 2 m/s 749 mmHg 80%
    12:00 +11°C° 0.2 mm 3 m/s 749 mmHg 78%
    13:00 +11°C° 0.2 mm 3 m/s 749 mmHg 75%
    14:00 +12°C° 0.2 mm 4 m/s 749 mmHg 73%
    15:00 +11°C° 0.1 mm 4 m/s 750 mmHg 74%
    16:00 +11°C° 0.1 mm 4 m/s 750 mmHg 75%
    17:00 +10°C° 0.1 mm 4 m/s 750 mmHg 76%
    18:00 +8°C° 0 mm 4 m/s 750 mmHg 77%
    19:00 +7°C° 0 mm 4 m/s 751 mmHg 77%
    20:00 +6°C° 0 mm 4 m/s 751 mmHg 78%
    21:00 +6°C° 0 mm 4 m/s 751 mmHg 79%
    22:00 +6°C° 0 mm 4 m/s 752 mmHg 80%
    23:00 +5°C° 0 mm 4 m/s 752 mmHg 80%

    25 Septembre, Mardi

    Heure Température Précipitation Vent Pression Humidité
    00:00 +5°C° 0 mm 5 m/s 752 mmHg 81%
    01:00 +5°C° 0 mm 5 m/s 753 mmHg 81%
    02:00 +5°C° 0 mm 5 m/s 753 mmHg 81%
    03:00 +5°C° 0.1 mm 5 m/s 753 mmHg 81%
    04:00 +5°C° 0.1 mm 5 m/s 754 mmHg 82%
    05:00 +5°C° 0.1 mm 5 m/s 754 mmHg 82%
    06:00 +4°C° 0.1 mm 6 m/s 755 mmHg 78%
    07:00 +5°C° 0.1 mm 6 m/s 755 mmHg 75%
    08:00 +5°C° 0.1 mm 7 m/s 756 mmHg 72%
    09:00 +6°C° 0.1 mm 7 m/s 757 mmHg 66%
    10:00 +8°C° 0.1 mm 7 m/s 757 mmHg 60%
    11:00 +7°C° 0.1 mm 8 m/s 758 mmHg 54%
    12:00 +9°C° 0 mm 8 m/s 758 mmHg 51%
    13:00 +9°C° 0 mm 7 m/s 759 mmHg 48%
    14:00 +9°C° 0 mm 7 m/s 759 mmHg 45%
    15:00 +9°C° 0 mm 6 m/s 759 mmHg 48%
    16:00 +8°C° 0 mm 5 m/s 760 mmHg 51%
    17:00 +7°C° 0 mm 5 m/s 760 mmHg 54%
    18:00 +7°C° 0 mm 4 m/s 760 mmHg 59%
    19:00 +6°C° 0 mm 4 m/s 761 mmHg 64%
    20:00 +6°C° 0 mm 4 m/s 761 mmHg 68%
    21:00 +6°C° 0 mm 4 m/s 760 mmHg 68%
    22:00 +6°C° 0 mm 5 m/s 760 mmHg 68%
    23:00 +6°C° 0 mm 5 m/s 760 mmHg 68%

    26 Septembre, Mercredi

    Heure Température Précipitation Vent Pression Humidité
    00:00 +6°C° 0.2 mm 5 m/s 759 mmHg 74%
    01:00 +7°C° 0.2 mm 5 m/s 759 mmHg 80%
    02:00 +7°C° 0.2 mm 5 m/s 759 mmHg 86%
    03:00 +7°C° 0.2 mm 4 m/s 758 mmHg 88%
    04:00 +7°C° 0.2 mm 4 m/s 758 mmHg 90%
    05:00 +7°C° 0.2 mm 4 m/s 757 mmHg 92%
    06:00 +7°C° 1 mm 4 m/s 757 mmHg 92%
    07:00 +8°C° 1 mm 4 m/s 756 mmHg 93%
    08:00 +8°C° 1 mm 4 m/s 756 mmHg 93%
    09:00 +9°C° 0.7 mm 5 m/s 756 mmHg 91%
    10:00 +9°C° 0.7 mm 5 m/s 755 mmHg 89%
    11:00 +10°C° 0.7 mm 5 m/s 755 mmHg 87%
    12:00 +9°C° 0.5 mm 6 m/s 754 mmHg 87%
    13:00 +9°C° 0.5 mm 6 m/s 754 mmHg 88%
    14:00 +9°C° 0.5 mm 6 m/s 753 mmHg 88%
    15:00 +9°C° 0.8 mm 6 m/s 752 mmHg 89%
    16:00 +9°C° 0.8 mm 6 m/s 751 mmHg 90%
    17:00 +9°C° 0.8 mm 6 m/s 750 mmHg 91%
    18:00 +9°C° 1 mm 7 m/s 749 mmHg 91%
    19:00 +10°C° 1 mm 7 m/s 748 mmHg 91%
    20:00 +10°C° 1 mm 8 m/s 747 mmHg 91%
    21:00 +10°C° 0.5 mm 7 m/s 747 mmHg 91%
    22:00 +11°C° 0.5 mm 7 m/s 746 mmHg 91%
    23:00 +11°C° 0.5 mm 7 m/s 746 mmHg 91%

    27 Septembre, Jeudi

    Heure Température Précipitation Vent Pression Humidité
    00:00 +11°C° 0.3 mm 7 m/s 746 mmHg 91%
    01:00 +11°C° 0.3 mm 6 m/s 746 mmHg 90%
    02:00 +11°C° 0.3 mm 6 m/s 746 mmHg 90%
    03:00 +10°C° 0.1 mm 6 m/s 746 mmHg 90%
    04:00 +10°C° 0.1 mm 5 m/s 746 mmHg 90%
    05:00 +10°C° 0.1 mm 4 m/s 747 mmHg 89%
    06:00 +10°C° 0 mm 4 m/s 747 mmHg 88%
    07:00 +10°C° 0 mm 4 m/s 747 mmHg 87%
    08:00 +10°C° 0 mm 3 m/s 746 mmHg 86%
    09:00 +10°C° 0.4 mm 4 m/s 746 mmHg 84%
    10:00 +11°C° 0.4 mm 4 m/s 746 mmHg 82%
    11:00 +12°C° 0.4 mm 5 m/s 745 mmHg 81%
    12:00 +12°C° 0.3 mm 5 m/s 745 mmHg 78%
    13:00 +11°C° 0.3 mm 6 m/s 744 mmHg 74%
    14:00 +13°C° 0.3 mm 6 m/s 744 mmHg 71%
    15:00 +11°C° 0.1 mm 6 m/s 744 mmHg 73%
    16:00 +11°C° 0.1 mm 6 m/s 743 mmHg 75%
    17:00 +10°C° 0.1 mm 6 m/s 743 mmHg 76%
    18:00 +9°C° 0.2 mm 5 m/s 743 mmHg 79%
    19:00 +9°C° 0.2 mm 5 m/s 743 mmHg 81%
    20:00 +8°C° 0.2 mm 5 m/s 743 mmHg 84%
    21:00 +8°C° 0 mm 5 m/s 743 mmHg 84%
    22:00 +7°C° 0 mm 5 m/s 743 mmHg 84%
    23:00 +7°C° 0 mm 5 m/s 743 mmHg 85%
    Voir plus